Weather History for Wahpeton, ND

Change the Weather History Date:

Thursday, November 8, 2012

  Actual Average (KFFM) Record (KFFM)
Temperature  
Mean Temperature 38 °F -  
Max Temperature 44 °F 42 °F 77 °F (1999)
Min Temperature 32 °F 24 °F -3 °F (1991)
Degree Days  
Heating Degree Days 27    
Moisture  
Dew Point 32 °F    
Average Humidity 83    
Maximum Humidity 93    
Minimum Humidity 70    
Precipitation  
Precipitation 0.00 in - - ()
Sea Level Pressure  
Sea Level Pressure 29.95 in    
Wind  
Wind Speed 13 mph (NNE)    
Max Wind Speed 21 mph    
Max Gust Speed 26 mph    
Visibility 10 miles    
Events      
Averages and records for this station are not official NWS values.
T = Trace of Precipitation, MM = Missing Value Source: NWS Daily Summary

Daily Weather History Graph

Daily Weather History Graph

Search for Another Location

Airport:

Trip Planner

Search our weather history database for the weather conditions in past years. The results will help you decide how hot, cold, wet, or windy it might be!

Date:

Astronomy

Nov. 08, 2012 Rise Set
Actual Time 7:18 AM CST 5:01 PM CST
Civil Twilight 6:46 AM CST 5:33 PM CST
Nautical Twilight 6:10 AM CST 6:09 PM CST
Astronomical Twilight 5:35 AM CST 6:44 PM CST
Moon 12:55 AM CST (11/8) 2:00 PM CST (11/8)
Length of Visible Light 10h 47m
Length of Day
9h 43m
Waning Crescent, 32% of the Moon is Illuminated
Nov 8
Waning Crescent
Nov 13
New
Nov 20
First Quarter
Nov 28
Full
Dec 6
Last Quarter

Hourly Weather History & Observations

Time (CST) Temp. Windchill Dew Point Humidity Pressure Visibility Wind Dir Wind Speed Gust Speed Precip Events Conditions
12:15 AM 37.4 °F 27.8 °F 32.0 °F 81% 29.84 in 10.0 mi SSE 17.3 mph - N/A   Clear
12:35 AM 37.4 °F 27.8 °F 32.0 °F 81% 29.83 in 10.0 mi SSE 17.3 mph 23.0 mph N/A   Clear
12:55 AM 37.4 °F 27.8 °F 32.0 °F 81% 29.83 in 10.0 mi SSE 17.3 mph - N/A   Clear
1:15 AM 37.4 °F 28.2 °F 32.0 °F 81% 29.83 in 10.0 mi SSE 16.1 mph 24.2 mph N/A   Clear
1:35 AM 37.4 °F 27.8 °F 32.0 °F 81% 29.82 in 10.0 mi SSE 17.3 mph 23.0 mph N/A   Clear
1:55 AM 37.4 °F 28.2 °F 32.0 °F 81% 29.83 in 10.0 mi SSE 16.1 mph - N/A   Clear
2:15 AM 37.4 °F 27.8 °F 32.0 °F 81% 29.81 in 10.0 mi SSE 17.3 mph 23.0 mph N/A   Clear
2:35 AM 37.4 °F 28.2 °F 32.0 °F 81% 29.81 in 10.0 mi SSE 16.1 mph - N/A   Clear
2:55 AM 37.4 °F 28.5 °F 32.0 °F 81% 29.81 in 10.0 mi SSE 15.0 mph - N/A   Clear
3:15 AM 37.4 °F 28.9 °F 32.0 °F 81% 29.81 in 10.0 mi SSE 13.8 mph - N/A   Clear
3:35 AM 35.6 °F 27.1 °F 32.0 °F 87% 29.82 in 10.0 mi SSE 12.7 mph - N/A   Clear
3:55 AM 35.6 °F 27.1 °F 32.0 °F 87% 29.84 in 10.0 mi SSE 12.7 mph - N/A   Clear
4:15 AM 35.6 °F 28.0 °F 32.0 °F 87% 29.83 in 10.0 mi SSE 10.4 mph - N/A   Clear
4:35 AM 35.6 °F 28.6 °F 32.0 °F 87% 29.83 in 10.0 mi SSE 9.2 mph - N/A   Clear
4:55 AM 33.8 °F 27.0 °F 32.0 °F 93% 29.83 in 10.0 mi SSE 8.1 mph - N/A   Clear
5:15 AM 33.8 °F 27.7 °F 32.0 °F 93% 29.84 in 10.0 mi SSE 6.9 mph - N/A   Clear
5:35 AM 32.0 °F 26.4 °F 30.2 °F 93% 29.84 in 10.0 mi SSE 5.8 mph - N/A   Clear
5:55 AM 32.0 °F 25.6 °F 30.2 °F 93% 29.84 in 10.0 mi SSE 6.9 mph - N/A   Clear
6:15 AM 32.0 °F 27.5 °F 30.2 °F 93% 29.85 in 10.0 mi South 4.6 mph - N/A   Clear
6:35 AM 32.0 °F 23.6 °F 30.2 °F 93% 29.86 in 10.0 mi SSE 10.4 mph - N/A   Clear
6:55 AM 33.8 °F 27.7 °F 32.0 °F 93% 29.85 in 10.0 mi South 6.9 mph - N/A   Clear
7:15 AM 33.8 °F 27.7 °F 32.0 °F 93% 29.86 in 10.0 mi SSE 6.9 mph - N/A   Clear
7:35 AM 33.8 °F 29.6 °F 32.0 °F 93% 29.87 in 10.0 mi SSE 4.6 mph - N/A   Clear
7:55 AM 33.8 °F 27.0 °F 32.0 °F 93% 29.86 in 10.0 mi SSE 8.1 mph - N/A   Clear
8:15 AM 33.8 °F 29.6 °F 32.0 °F 93% 29.88 in 10.0 mi South 4.6 mph - N/A   Clear
8:35 AM 33.8 °F 28.6 °F 32.0 °F 93% 29.89 in 10.0 mi South 5.8 mph - N/A   Clear
8:55 AM 33.8 °F 28.6 °F 32.0 °F 93% 29.90 in 10.0 mi South 5.8 mph - N/A   Clear
9:15 AM 35.6 °F 30.7 °F 32.0 °F 87% 29.91 in 10.0 mi SSW 5.8 mph - N/A   Clear
9:35 AM 37.4 °F 33.8 °F 32.0 °F 81% 29.92 in 10.0 mi WSW 4.6 mph - N/A   Scattered Clouds
9:55 AM 39.2 °F 33.0 °F 32.0 °F 75% 29.93 in 10.0 mi WNW 9.2 mph - N/A   Clear
10:15 AM 42.8 °F 36.6 °F 33.8 °F 70% 29.92 in 10.0 mi NNW 11.5 mph - N/A   Clear
10:35 AM 44.6 °F 37.4 °F 35.6 °F 71% 29.93 in 10.0 mi NNW 16.1 mph 21.9 mph N/A   Clear
10:55 AM 44.6 °F 36.4 °F 35.6 °F 71% 29.94 in 10.0 mi NNW 20.7 mph 26.5 mph N/A   Mostly Cloudy
11:15 AM 42.8 °F 35.1 °F 35.6 °F 76% 29.95 in 10.0 mi North 16.1 mph 25.3 mph N/A   Overcast
11:35 AM 42.8 °F 34.0 °F 35.6 °F 76% 29.96 in 10.0 mi North 20.7 mph 25.3 mph N/A   Overcast
11:55 AM 42.8 °F 34.0 °F 33.8 °F 70% 29.96 in 10.0 mi North 20.7 mph 26.5 mph N/A   Overcast
12:15 PM 41.0 °F 32.2 °F 33.8 °F 76% 29.97 in 10.0 mi North 18.4 mph - N/A   Overcast
12:55 PM 41.0 °F 33.1 °F 33.8 °F 76% 29.97 in 10.0 mi North 15.0 mph - N/A   Overcast
1:15 PM 41.0 °F 32.5 °F 33.8 °F 76% 29.98 in 10.0 mi North 17.3 mph 21.9 mph N/A   Overcast
1:35 PM 41.0 °F 33.1 °F 33.8 °F 76% 29.99 in 10.0 mi North 15.0 mph 23.0 mph N/A   Overcast
1:55 PM 41.0 °F 32.8 °F 33.8 °F 76% 29.99 in 10.0 mi North 16.1 mph - N/A   Overcast
2:15 PM 41.0 °F 32.8 °F 33.8 °F 76% 30.00 in 10.0 mi North 16.1 mph 21.9 mph N/A   Overcast
2:35 PM 41.0 °F 32.5 °F 33.8 °F 76% 30.00 in 10.0 mi North 17.3 mph 21.9 mph N/A   Overcast
2:55 PM 41.0 °F 32.8 °F 33.8 °F 76% 30.00 in 10.0 mi North 16.1 mph 20.7 mph N/A   Overcast
3:15 PM 41.0 °F 33.1 °F 33.8 °F 76% 30.01 in 10.0 mi North 15.0 mph 23.0 mph N/A   Overcast
3:35 PM 39.2 °F 29.8 °F 33.8 °F 81% 30.03 in 10.0 mi North 18.4 mph 24.2 mph N/A   Overcast
3:55 PM 37.4 °F 28.2 °F 32.0 °F 81% 30.03 in 10.0 mi NNE 16.1 mph - N/A   Overcast
4:15 PM 37.4 °F 29.8 °F 32.0 °F 81% 30.03 in 10.0 mi NNE 11.5 mph - N/A   Overcast
4:35 PM 37.4 °F 29.3 °F 32.0 °F 81% 30.04 in 10.0 mi North 12.7 mph 19.6 mph N/A   Overcast
4:55 PM 37.4 °F 29.8 °F 32.0 °F 81% 30.05 in 10.0 mi North 11.5 mph 19.6 mph N/A   Overcast
5:15 PM 37.4 °F 28.9 °F 32.0 °F 81% 30.05 in 10.0 mi North 13.8 mph 18.4 mph N/A   Overcast
5:35 PM 37.4 °F 29.3 °F 32.0 °F 81% 30.06 in 10.0 mi North 12.7 mph - N/A   Overcast
5:55 PM 37.4 °F 30.8 °F 32.0 °F 81% 30.06 in 10.0 mi North 9.2 mph - N/A   Overcast
6:15 PM 37.4 °F 30.3 °F 32.0 °F 81% 30.06 in 10.0 mi North 10.4 mph 17.3 mph N/A   Overcast
6:35 PM 37.4 °F 28.9 °F 32.0 °F 81% 30.06 in 10.0 mi North 13.8 mph - N/A   Overcast
6:55 PM 37.4 °F 28.9 °F 32.0 °F 81% 30.06 in 10.0 mi North 13.8 mph 18.4 mph N/A   Overcast
7:15 PM 37.4 °F 28.2 °F 32.0 °F 81% 30.06 in 10.0 mi North 16.1 mph 21.9 mph N/A   Overcast
7:35 PM 37.4 °F 28.5 °F 32.0 °F 81% 30.05 in 10.0 mi NNE 15.0 mph - N/A   Overcast
7:55 PM 37.4 °F 30.3 °F 32.0 °F 81% 30.06 in 10.0 mi NNE 10.4 mph - N/A   Overcast
8:15 PM 37.4 °F 30.8 °F 32.0 °F 81% 30.08 in 10.0 mi NNE 9.2 mph - N/A   Overcast
8:35 PM 35.6 °F 28.0 °F 32.0 °F 87% 30.07 in 10.0 mi North 10.4 mph - N/A   Overcast
8:55 PM 35.6 °F 28.6 °F 32.0 °F 87% 30.08 in 10.0 mi North 9.2 mph - N/A   Overcast
9:15 PM 35.6 °F 28.0 °F 32.0 °F 87% 30.08 in 10.0 mi North 10.4 mph - N/A   Overcast
9:35 PM 35.6 °F 27.1 °F 32.0 °F 87% 30.08 in 10.0 mi North 12.7 mph - N/A   Overcast
9:55 PM 35.6 °F 27.5 °F 32.0 °F 87% 30.08 in 10.0 mi North 11.5 mph 17.3 mph N/A   Overcast
10:15 PM 35.6 °F 25.9 °F 32.0 °F 87% 30.08 in 10.0 mi North 16.1 mph - N/A   Overcast
10:35 PM 33.8 °F 24.3 °F 30.2 °F 87% 30.08 in 10.0 mi North 13.8 mph - N/A   Overcast
10:55 PM 33.8 °F 24.8 °F 30.2 °F 87% 30.08 in 10.0 mi North 12.7 mph - N/A   Overcast
11:15 PM 33.8 °F 23.9 °F 30.2 °F 87% 30.09 in 10.0 mi North 15.0 mph - N/A   Overcast
11:35 PM 33.8 °F 24.3 °F 30.2 °F 87% 30.09 in 10.0 mi North 13.8 mph - N/A   Overcast
11:55 PM 33.8 °F 24.8 °F 30.2 °F 87% 30.10 in 10.0 mi North 12.7 mph 20.7 mph N/A   Overcast